Location: Boiro
(42.6475°N, 8.8834°W)
Time: 23:49:22
(UTC+01:00)

Altair - Pass Details

Date: 05 December 2021
Orbit: 1501 x 1683 km, 47.2° (Epoch: 18 January)

Event Time Altitude Azimuth Distance (km) Brightness Sun altitude
Rises 15:48:44 0° 216° (SW) 4,821 11.9 17.1°
Reaches altitude 10° 15:52:01 10° 211° (SSW) 3,813 12.3 16.8°
Maximum altitude 16:01:09 50° 140° (SE) 1,926 8.4 15.8°
Drops below altitude 10° 16:09:59 10° 69° (ENE) 3,696 9.1 14.8°
Sets 16:13:05 0° 64° (ENE) 4,664 9.5 14.4°
